Gatesville, TX

8:17 AM CST on November 20, 2019 (GMT -0600)
Gatesville

Weather History for KGOP - October, 2019

Change the Weather History Date:

Tuesday, October 22, 2019

  Actual Average (KHLR) Record (KHLR)
Temperature  
Mean Temperature 58 °F -  
Max Temperature 75 °F 76 °F 91 °F (2003)
Min Temperature 42 °F 58 °F 44 °F (2006)
Degree Days  
Heating Degree Days 6    
Growing Degree Days 8 (Base 50)    
Moisture  
Dew Point 37 °F    
Average Humidity 52    
Maximum Humidity 87    
Minimum Humidity 19    
Precipitation  
Precipitation 0.00 in - - ()
Sea Level Pressure  
Sea Level Pressure 30.18 in    
Wind  
Wind Speed 1 mph ()    
Max Wind Speed 7 mph    
Max Gust Speed -    
Visibility 10.0 miles    
Events      
Averages and records for this station are not official NWS values.
T = Trace of Precipitation, MM = Missing Value Source: Averaged Metar Reports

Daily Weather History Graph

Daily Weather History Graph

Search for Another Location

Airport or City:

Astronomy

Oct. 22, 2019 Rise Set
Actual Time 7:39 AM CDT 6:51 PM CDT
Civil Twilight 7:14 AM CDT 7:16 PM CDT
Nautical Twilight 6:46 AM CDT 7:44 PM CDT
Astronomical Twilight 6:17 AM CDT 8:12 PM CDT
Moon 1:21 AM CDT (10/22) 3:33 PM CDT (10/22)
Length of Visible Light 12h 02m
Length of Day
11h 12m
Last Quarter, 37% of the Moon is Illuminated
Oct 22
Last Quarter
Oct 27
New
Nov 4
First Quarter
Nov 12
Full
Nov 19
Last Quarter

Hourly Weather History & Observations

Time (CDT) Temp. Windchill Dew Point Humidity Pressure Visibility Wind Dir Wind Speed Gust Speed Precip Events Conditions
12:15 AM 51.8 °F - 42.8 °F 71% 30.12 in 10.0 mi Calm Calm - N/A   Clear
12:35 AM 50.0 °F - 42.8 °F 76% 30.12 in 10.0 mi Calm Calm - N/A   Clear
12:55 AM 50.0 °F - 41.0 °F 71% 30.12 in 10.0 mi Calm Calm - N/A   Clear
1:15 AM 50.0 °F - 41.0 °F 71% 30.12 in 10.0 mi Calm Calm - N/A   Clear
1:35 AM 48.2 °F - 41.0 °F 76% 30.13 in 10.0 mi Calm Calm - N/A   Clear
1:55 AM 46.4 °F - 41.0 °F 81% 30.13 in 10.0 mi Calm Calm - N/A   Clear
2:15 AM 48.2 °F - 41.0 °F 76% 30.14 in 10.0 mi Calm Calm - N/A   Clear
2:35 AM 46.4 °F - 41.0 °F 81% 30.14 in 10.0 mi Calm Calm - N/A   Clear
2:55 AM 48.2 °F - 41.0 °F 76% 30.14 in 10.0 mi Calm Calm - N/A   Clear
3:15 AM 46.4 °F - 41.0 °F 81% 30.14 in 10.0 mi Calm Calm - N/A   Clear
3:35 AM 48.2 °F - 41.0 °F 76% 30.14 in 10.0 mi Calm Calm - N/A   Clear
3:55 AM 46.4 °F - 41.0 °F 81% 30.14 in 10.0 mi Calm Calm - N/A   Clear
4:10 AM 44.6 °F - 39.2 °F 81% 30.14 in 10.0 mi Calm Calm - N/A   Clear
4:35 AM 44.6 °F - 39.2 °F 81% 30.14 in 10.0 mi Calm Calm - N/A   Clear
4:55 AM 44.6 °F - 39.2 °F 81% 30.15 in 10.0 mi Calm Calm - N/A   Clear
5:15 AM 46.4 °F - 39.2 °F 76% 30.15 in 10.0 mi Calm Calm - N/A   Clear
5:35 AM 44.6 °F - 39.2 °F 81% 30.16 in 10.0 mi Calm Calm - N/A   Clear
5:55 AM 42.8 °F - 39.2 °F 87% 30.17 in 10.0 mi Calm Calm - N/A   Clear
6:15 AM 44.6 °F - 39.2 °F 81% 30.18 in 10.0 mi Calm Calm - N/A   Clear
6:35 AM 42.8 °F 40.1 °F 39.2 °F 87% 30.19 in 10.0 mi SW 4.6 mph - N/A   Clear
6:55 AM 42.8 °F - 39.2 °F 87% 30.19 in 10.0 mi Calm Calm - N/A   Clear
7:15 AM 42.8 °F 41.1 °F 39.2 °F 87% 30.20 in 10.0 mi SW 3.5 mph - N/A   Clear
7:35 AM 42.8 °F - 37.4 °F 81% 30.21 in 10.0 mi Calm Calm - N/A   Clear
7:55 AM 42.8 °F - 37.4 °F 81% 30.21 in 10.0 mi Calm Calm - N/A   Clear
8:15 AM 44.6 °F - 39.2 °F 81% 30.22 in 10.0 mi Calm Calm - N/A   Clear
8:35 AM 46.4 °F - 41.0 °F 81% 30.23 in 10.0 mi Calm Calm - N/A   Clear
8:55 AM 50.0 °F - 42.8 °F 76% 30.24 in 10.0 mi Calm Calm - N/A   Clear
9:15 AM 51.8 °F - 42.8 °F 71% 30.25 in 10.0 mi Calm Calm - N/A   Clear
9:35 AM 55.4 °F - 42.8 °F 63% 30.26 in 10.0 mi Calm Calm - N/A   Clear
9:55 AM 57.2 °F - 44.6 °F 63% 30.27 in 10.0 mi Variable 5.8 mph - N/A   Clear
10:15 AM 59.0 °F - 46.4 °F 63% 30.27 in 10.0 mi North 3.5 mph - N/A   Clear
10:35 AM 62.6 °F - 44.6 °F 52% 30.27 in 10.0 mi Variable 4.6 mph - N/A   Clear
10:55 AM 66.2 °F - 39.2 °F 37% 30.27 in 10.0 mi NE 5.8 mph - N/A   Clear
11:15 AM 68.0 °F - 35.6 °F 30% 30.27 in 10.0 mi ENE 6.9 mph - N/A   Clear
11:35 AM 68.0 °F - 33.8 °F 28% 30.27 in 10.0 mi Variable 5.8 mph - N/A   Clear
11:55 AM 69.8 °F - 33.8 °F 27% 30.27 in 10.0 mi Variable 4.6 mph - N/A   Clear
12:15 PM 69.8 °F - 33.8 °F 27% 30.27 in 10.0 mi Variable 4.6 mph - N/A   Clear
12:35 PM 69.8 °F - 32.0 °F 25% 30.27 in 10.0 mi Calm Calm - N/A   Clear
12:55 PM 69.8 °F - 32.0 °F 25% 30.26 in 10.0 mi Calm Calm - N/A   Clear
1:15 PM 71.6 °F - 32.0 °F 23% 30.25 in 10.0 mi ENE 5.8 mph - N/A   Clear
1:35 PM 71.6 °F - 32.0 °F 23% 30.24 in 10.0 mi Variable 5.8 mph - N/A   Clear
1:55 PM 73.4 °F - 32.0 °F 22% 30.23 in 10.0 mi Calm Calm - N/A   Clear
2:15 PM 73.4 °F - 32.0 °F 22% 30.21 in 10.0 mi Variable 4.6 mph - N/A   Clear
2:35 PM 73.4 °F - 30.2 °F 20% 30.20 in 10.0 mi Variable 4.6 mph - N/A   Clear
2:55 PM 73.4 °F - 32.0 °F 22% 30.19 in 10.0 mi Calm Calm - N/A   Clear
3:15 PM 73.4 °F - 30.2 °F 20% 30.18 in 10.0 mi Calm Calm - N/A   Clear
3:35 PM 73.4 °F - 32.0 °F 22% 30.18 in 10.0 mi Variable 4.6 mph - N/A   Clear
3:55 PM 75.2 °F - 30.2 °F 19% 30.17 in 10.0 mi Calm Calm - N/A   Clear
4:15 PM 75.2 °F - 32.0 °F 21% 30.17 in 10.0 mi Variable 3.5 mph - N/A   Clear
4:35 PM 75.2 °F - 32.0 °F 21% 30.17 in 10.0 mi Calm Calm - N/A   Clear
4:55 PM 75.2 °F - 32.0 °F 21% 30.16 in 10.0 mi Calm Calm - N/A   Clear
5:15 PM 73.4 °F - 32.0 °F 22% 30.15 in 10.0 mi Calm Calm - N/A   Clear
5:35 PM 73.4 °F - 32.0 °F 22% 30.15 in 10.0 mi Calm Calm - N/A   Clear
5:55 PM 73.4 °F - 32.0 °F 22% 30.14 in 10.0 mi East 4.6 mph - N/A   Clear
6:15 PM 73.4 °F - 33.8 °F 23% 30.15 in 10.0 mi Calm Calm - N/A   Clear
6:35 PM 69.8 °F - 35.6 °F 28% 30.15 in 10.0 mi Calm Calm - N/A   Clear
6:55 PM 68.0 °F - 37.4 °F 33% 30.15 in 10.0 mi Calm Calm - N/A   Clear
7:15 PM 66.2 °F - 37.4 °F 35% 30.14 in 10.0 mi Calm Calm - N/A   Clear
7:35 PM 64.4 °F - 37.4 °F 37% 30.14 in 10.0 mi Calm Calm - N/A   Clear
7:55 PM 62.6 °F - 37.4 °F 39% 30.14 in 10.0 mi Calm Calm - N/A   Clear
8:15 PM 62.6 °F - 37.4 °F 39% 30.13 in 10.0 mi Calm Calm - N/A   Clear
8:35 PM 60.8 °F - 37.4 °F 42% 30.13 in 10.0 mi Calm Calm - N/A   Clear
8:55 PM 60.8 °F - 35.6 °F 39% 30.13 in 10.0 mi Calm Calm - N/A   Clear
9:15 PM 59.0 °F - 37.4 °F 45% 30.12 in 10.0 mi Calm Calm - N/A   Clear
9:35 PM 59.0 °F - 37.4 °F 45% 30.12 in 10.0 mi Calm Calm - N/A   Clear
9:55 PM 57.2 °F - 37.4 °F 48% 30.12 in 10.0 mi Calm Calm - N/A   Clear
10:15 PM 57.2 °F - 37.4 °F 48% 30.13 in 10.0 mi Calm Calm - N/A   Clear
10:35 PM 57.2 °F - 35.6 °F 44% 30.12 in 10.0 mi Calm Calm - N/A   Clear
10:55 PM 55.4 °F - 35.6 °F 47% 30.13 in 10.0 mi Calm Calm - N/A   Clear
11:15 PM 55.4 °F - 35.6 °F 47% 30.13 in 10.0 mi Calm Calm - N/A   Clear
11:35 PM 55.4 °F - 37.4 °F 51% 30.12 in 10.0 mi Calm Calm - N/A   Clear
11:55 PM 55.4 °F - 37.4 °F 51% 30.12 in 10.0 mi Calm Calm - N/A   Clear